|
|
Asteroid 2009 KW2
(Preview)
Orbital elements: 2009 KW2 Earth MOID = 0.0036 AU Epoch 2009 June 18.0 TT = JDT 2455000.5 MPC M 13.44176 (2000.0) P Q n 0.62210850 Peri. 2.82925 -0.40015562 +0.91289808 a 1.3590183 Node 243.59405 -0.84258035 -0.40106016 e 0.2523041 Incl. 5.16147 -0.36046337 -0.07594635 P 1.58 H 26.3 G 0.15 U 8 [url...
|
Blobrana
|
1
|
|
|
|
|
Asteroid 2009 KV2
(Preview)
Orbital elements: 2009 KV2 Earth MOID = 0.2910 AU Epoch 2009 June 18.0 TT = JDT 2455000.5 MPC M 17.80342 (2000.0) P Q n 0.33244101 Peri. 338.80539 -0.77362709 +0.49019950 a 2.0637622 Node 237.03872 -0.49044767 -0.86444865 e 0.3781713 Incl. 28.58937 -0.40120096 +0.11150326 P 2.96 H 19.8 G 0.15 U 9 [...
|
Blobrana
|
0
|
|
|
|
|
Asteroid 2009 ED27
(Preview)
2009 ED27 Earth Impact Risk SummaryTorino Scale (maximum) Palermo Scale (maximum) -3.94Palermo Scale (cumulative) -3.90Impact Probability (cumulative) 1.5e-09Number of Potential Impacts 2 Vimpact 16.73 km/sVinfinity 12.48 km/sH 15.5Diameter 2.700 kmMass 2.6e+13 kgEnergy 8.6e+05 MTa...
|
Blobrana
|
0
|
|
|
|
|
Asteroid 2009 KY1
(Preview)
2009 KY1 = 95IA050 NEOCPO Orbital elements: 2009 KY1 Earth MOID = 0.0381 AU Epoch 2009 June 18.0 TT = JDT 2455000.5 MPC M 82.78750 (2000.0) P Q n 0.80329022 Peri. 280.55080 -0.91322257 -0.38403405 a 1.1460962 Node 236.99182 +0.40745241 -0.85851628 e 0.1919509 Incl. 9.34505 +0.00266045 -0.339805...
|
Blobrana
|
0
|
|
|
|
|
Asteroid 2009 JR2
(Preview)
Orbital elements: 2009 JR2 Earth MOID = 0.1316 AU Epoch 2009 June 18.0 TT = JDT 2455000.5 MPC M 325.31629 (2000.0) P Q n 0.71221293 Peri. 255.86385 +0.58046325 +0.76768940 a 1.2418319 Node 52.93810 -0.55177765 +0.61603242 e 0.1694228 Incl. 19.89145 -0.59883540 +0.17651355 P 1.38 H 22.6 G 0.15 U 9 [...
|
Blobrana
|
1
|
|
|
|
|
Asteroid 2009 HM73
(Preview)
Orbital elements: 2009 HM73 Earth MOID = 0.1727 AU Epoch 2009 June 18.0 TT = JDT 2455000.5 MPC M 10.08078 (2000.0) P Q n 0.29418973 Peri. 156.65174 -0.62048847 +0.77776020 a 2.2389843 Node 74.84463 -0.73490908 -0.53200318 e 0.4735229 Incl. 5.97146 -0.27368359 -0.33475615 P 3.35 H 23.1 G 0.15 U 9 [u...
|
Blobrana
|
3
|
|
|
|
|
Asteroid 2009 KN
(Preview)
Orbital elements: 2009 KN Earth MOID = 0.4347 AU Epoch 2009 June 18.0 TT = JDT 2455000.5 MPC M 26.62639 (2000.0) P Q n 0.20671362 Peri. 84.56943 -0.38019134 -0.47606511 a 2.8328483 Node 64.02702 -0.08277980 -0.83640537 e 0.6502220 Incl. 61.89281 +0.92119599 -0.27163959 P 4.77 H 20.4 G 0.15 U 9 [url...
|
Blobrana
|
1
|
|
|
|
|
Asteroid 2009 KL
(Preview)
Orbital elements: 2009 KL Earth MOID = 0.0171 AU Epoch 2009 June 18.0 TT = JDT 2455000.5 MPC M 27.09280 (2000.0) P Q n 0.34912417 Peri. 307.52986 -0.97958536 -0.18552770 a 1.9974815 Node 221.93797 +0.20059853 -0.92729252 e 0.5920562 Incl. 6.65114 -0.01314344 -0.32512776 P 2.82 H 23.7 G 0.15 U 8 [ur...
|
Blobrana
|
0
|
|
|
|
|
Asteroid 2009 JR5
(Preview)
Orbital elements: 2009 JR5 PHA, Earth MOID = 0.0259 AU Epoch 2009 June 18.0 TT = JDT 2455000.5 MPC M 160.60832 (2000.0) P Q n 0.70195376 Peri. 309.94351 +0.20371517 -0.97751023 a 1.2539023 Node 128.21716 +0.91808247 +0.17139049 e 0.3578490 Incl. 3.98009 +0.34003635 +0.12287822 P 1.40 H 20.2 G 0.1...
|
Blobrana
|
0
|
|
|
|
|
Asteroid 2008 JM20
(Preview)
Orbital elements: 2008 JM20 Earth MOID = 0.1640 AU Epoch 2009 June 18.0 TT = JDT 2455000.5 MPC M 94.18924 (2000.0) P Q n 0.95387039 Peri. 27.69187 -0.01448071 -0.93789270 a 1.0220602 Node 64.97383 +0.83205695 -0.20354607 e 0.5920720 Incl. 22.49097 +0.55450117 +0.28093823 P 1.03 H 21.0 G 0.15 U 4 [u...
|
Blobrana
|
0
|
|
|
|
|
Asteroid 2009 JG2
(Preview)
Orbital elements: 2009 JG2 Earth MOID = 0.0001 AU Epoch 2009 June 18.0 TT = JDT 2455000.5 MPC M 353.99317 (2000.0) P Q n 0.34171883 Peri. 103.79645 +0.71469323 +0.69899150 a 2.0262364 Node 211.86871 -0.65861856 +0.66052696 e 0.6578292 Incl. 2.71287 -0.23544677 +0.27407120 P 2.88 H 22.6 G 0.15 U 7 [...
|
Blobrana
|
1
|
|
|
|
|
Asteroid 2001 SG286
(Preview)
Orbital elements: 2001 SG286 PHA, Earth MOID = 0.0054 AU Epoch 2009 June 18.0 TT = JDT 2455000.5 MPC M 349.82435 (2000.0) P Q n 0.62254714 Peri. 56.13239 +0.45348296 +0.88334070 a 1.3583798 Node 241.26581 -0.85587067 +0.39447899 e 0.3473333 Incl. 7.77241 -0.24867369 +0.25317097 P 1.58 H 20.9 G 0....
|
Blobrana
|
2
|
|
|
|
|
Asteroid 2001 SL264
(Preview)
Orbital elements: 2001 SL264 Earth MOID = 0.2860 AU Epoch 2009 June 18.0 TT = JDT 2455000.5 MPC M 189.42911 (2000.0) P Q n 0.31568319 Peri. 280.45545 +0.75379888 +0.65454272 a 2.1361664 Node 38.69660 -0.56077491 +0.68677379 e 0.4006934 Incl. 5.32071 -0.34251825 +0.31609428 P 3.12 H 19.5 G 0.15 U 6...
|
Blobrana
|
0
|
|
|
|
|
Asteroid 2009 JQ2
(Preview)
Orbital elements: 2009 JQ2 Earth MOID = 0.1912 AU Epoch 2009 June 18.0 TT = JDT 2455000.5 MPC M 57.89161 (2000.0) P Q n 0.53590446 Peri. 109.98132 -0.79021023 -0.44326710 a 1.5011052 Node 46.63765 +0.03587172 -0.72280081 e 0.3155243 Incl. 35.59635 +0.61178510 -0.53016343 P 1.84 H 21.3 G 0.15 U 9 [u...
|
Blobrana
|
0
|
|
|
|
|
Asteroid 2009 JM2
(Preview)
Orbital elements: 2009 JM2 Earth MOID = 0.1038 AU Epoch 2009 June 18.0 TT = JDT 2455000.5 MPC M 19.17133 (2000.0) P Q n 0.26887421 Peri. 117.18016 -0.95997259 +0.06546608 a 2.3774056 Node 67.64966 -0.19520302 -0.85365563 e 0.6028677 Incl. 17.12496 +0.20086913 -0.51670713 P 3.67 H 18.9 G 0.15 U 7 [u...
|
Blobrana
|
1
|
|
|